This demonstration page uses our WeatherBlox Daily Observations layout. Learn more.

Left ArrowRight Arrow

38.88101, -77.10428

Hourly Observations for October 25, 2021

Temp ( °F °C ) Dew Point ( °F °C ) Humidity (%) Winds ( mph kmh ) Pressure ( in mb ) Visibility ( mi km ) Precip ( " mm )
12:52 am 00:52 Mostly Cloudy 63 17.2 55 12.8 76 76 S 12 19 30.02 1017 10 16 N/A
1:52 am 01:52 Cloudy 64 17.8 54 12.2 70 70 S 10 17 30.02 1017 10 16 N/A
2:52 am 02:52 Cloudy 64 17.8 56 13.3 75 75 S 12 19 30.01 1016 10 16 N/A
3:52 am 03:52 Cloudy 64 17.8 57 13.9 78 78 S 15 24 30.00 1016 10 16 N/A
4:52 am 04:52 Cloudy 63 17.2 57 13.9 81 81 S 13 20 29.99 1016 10 16 N/A
5:52 am 05:52 Mostly Cloudy 63 17.2 58 14.4 84 84 S 12 19 29.98 1015 10 16 N/A
6:52 am 06:52 Cloudy 63 17.2 59 15 87 87 S 13 20 29.97 1015 10 16 N/A
7:52 am 07:52 Cloudy 63 17.2 59 15 87 87 SSW 13 20 29.97 1015 10 16 N/A
8:52 am 08:52 Cloudy 65 18.3 60 15.6 84 84 S 14 22 29.96 1015 10 16 N/A
9:52 am 09:52 Mostly Cloudy 68 20 60 15.6 76 76 S 10 17 29.95 1014 10 16 N/A
10:52 am 10:52 Partly Cloudy 70 21.1 61 16.1 73 73 S 14 22 29.92 1013 10 16 N/A
11:52 am 11:52 Partly Cloudy 75 23.9 59 15 58 58 SSW 14 22 29.90 1012 10 16 N/A
12:52 pm 12:52 Mostly Cloudy 77 25 59 15 54 54 S 12 19 29.87 1011 10 16 N/A
1:52 pm 13:52 Mostly Cloudy 77 25 59 15 54 54 S 14 22 29.82 1010 10 16 N/A
2:52 pm 14:52 Mostly Cloudy 80 26.7 60 15.6 51 51 SSW 14 22 29.78 1008 10 16 N/A
3:52 pm 15:52 Mostly Cloudy 76 24.4 61 16.1 60 60 S 13 20 29.76 1008 10 16 N/A
4:52 pm 16:52 Mostly Cloudy 76 24.4 62 16.7 62 62 SSE 12 19 29.74 1007 10 16 N/A
5:16 pm 17:16 Mostly Cloudy with Nearby Thunderstorms 75 23.9 63 17.2 66 66 SSE 14 22 29.74 1007 10 16 N/A
5:28 pm 17:28 Mostly Cloudy with Nearby Thunderstorms 72 22.2 63 17.2 73 73 S 30 48 29.74 1007 10 16 0.00 0.00
5:33 pm 17:33 Mostly Cloudy with Nearby Thunderstorms 68 20 62 16.7 81 81 S 24 39 29.75 1007 2 3 0.00 0.00
5:35 pm 17:35 Mostly Cloudy with Heavy Rain 67 19.4 62 16.7 84 84 SSW 20 31 29.75 1007 2 3 0.04 1.02
5:42 pm 17:42 Cloudy with Rain 67 19.4 62 16.7 84 84 S 13 20 29.74 1007 3 4 0.08 2.03
5:44 pm 17:44 Cloudy with Rain 68 20 62 16.7 81 81 S 12 19 29.74 1007 4 6 0.09 2.29
5:46 pm 17:46 Cloudy with Nearby Thunderstorms 68 20 63 17 83 83 S 12 19 29.75 1007 5 8 0.10 2.54
5:52 pm 17:52 Cloudy with Nearby Thunderstorms 68 20 62 16.7 81 81 S 9 15 29.74 1007 7 11 0.11 2.79
6:01 pm 18:01 Cloudy with Light Rain 68 20 63 17.2 84 84 S 8 13 29.74 1007 10 16 0.01 0.25
6:52 pm 18:52 Cloudy 67 19.4 62 16.7 84 84 SSW 5 7 29.72 1007 10 16 0.01 0.25
7:37 pm 19:37 Cloudy 67 19.4 63 17.2 87 87 NNW 10 17 29.72 1006 10 16 0.01 0.25
7:46 pm 19:46 Cloudy with Thunderstorms 66 19 63 17 88 88 NW 9 15 29.72 1006 10 16 0.01 0.25
7:52 pm 19:52 Cloudy with Thunderstorms 67 19.4 63 17.2 87 87 NNW 7 11 29.72 1006 5 8 0.02 0.51
7:57 pm 19:57 Cloudy with Strong Thunderstorms 67 19.4 63 17.2 87 87 N 8 13 29.72 1006 3 5 0.03 0.76
8:00 pm 20:00 Cloudy with Nearby Thunderstorms 66 18.9 63 17.2 90 90 N 8 13 29.73 1007 3 4 0.05 1.27
8:01 pm 20:01 Cloudy with Nearby Thunderstorms 66 18.9 62 16.7 87 87 NNW 9 15 29.73 1007 3 4 0.06 1.52
8:07 pm 20:07 Cloudy with Nearby Thunderstorms 66 18.9 62 16.7 87 87 NW 9 15 29.73 1007 3 5 0.11 2.79
8:34 pm 20:34 Cloudy with Rain 64 17.8 61 16.1 90 90 ENE 5 7 29.74 1007 3 5 0.28 7.11
8:52 pm 20:52 Cloudy with Heavy Rain 64 17.8 60 15.6 87 87 N 6 9 29.73 1007 3 5 0.36 9.14
8:58 pm 20:58 Cloudy with Heavy Rain 64 17.8 60 15.6 87 87 N 6 9 29.73 1007 3 4 0.05 1.27
9:00 pm 21:00 Cloudy with Heavy Rain 64 17.8 60 15.6 87 87 NNW 5 7 29.73 1007 3 5 0.06 1.52
9:05 pm 21:05 Cloudy with Rain 64 17.8 60 15.6 87 87 W 7 11 29.74 1007 3 5 0.09 2.29
9:07 pm 21:07 Cloudy with Heavy Rain 64 17.8 60 15.6 87 87 VRB 5 7 29.73 1007 3 4 0.10 2.54
9:15 pm 21:15 Cloudy with Rain 64 17.8 60 15.6 87 87 NNW 9 15 29.73 1007 3 5 0.17 4.32
9:18 pm 21:18 Cloudy with Heavy Rain 64 17.8 60 15.6 87 87 NNW 10 17 29.73 1007 4 6 0.18 4.57
9:29 pm 21:29 Cloudy with Heavy Rain 64 17.8 61 16.1 90 90 NW 12 19 29.73 1007 3 4 0.25 6.35
9:31 pm 21:31 Cloudy with Heavy Rain 64 17.8 61 16.1 90 90 NW 13 20 29.73 1007 3 4 0.27 6.86
9:36 pm 21:36 Cloudy with Heavy Rain 63 17.2 60 15.6 90 90 NW 15 24 29.73 1007 2 3 0.32 8.13
9:41 pm 21:41 Cloudy with Heavy Rain 62 16.7 59 15 90 90 NNW 15 24 29.73 1007 2 3 0.42 10.67
9:45 pm 21:45 Cloudy with Heavy Rain 62 16.7 59 15 90 90 NNW 14 22 29.72 1006 2 3 0.46 11.68
9:47 pm 21:47 Cloudy with Strong Thunderstorms 63 17 59 15 88 88 N 12 19 29.72 1006 3 5 0.48 12.19
9:52 pm 21:52 Cloudy with Thunderstorms 62 16.7 59 15 90 90 N 10 17 29.72 1006 4 6 0.50 12.70
10:12 pm 22:12 Cloudy with Heavy Rain 62 16.7 59 15 90 90 N 6 9 29.74 1007 3 5 0.09 2.29
10:22 pm 22:22 Cloudy with Heavy Rain 62 16.7 59 15 90 90 NNE 9 15 29.72 1006 3 4 0.18 4.57
10:25 pm 22:25 Cloudy with Heavy Rain 62 16.7 59 15 90 90 NNE 13 20 29.72 1006 3 5 0.21 5.33
10:52 pm 22:52 Cloudy with Rain 62 16.7 59 15 90 90 ENE 10 17 29.70 1006 6 10 0.33 8.38
11:52 pm 23:52 Cloudy with Light Rain 62 16.7 58 14.4 86 86 N 7 11 29.65 1004 10 16 0.10 2.54

Powered by AerisWeather